EW1525 Weather Reports


Display with metric or nautical units.
time (UTC)temp
F
wind
direction
speed
MPH
gust
MPH
rain 1hr
in
rain 24hr
in
rain mn
in
humidity
%
barometer
mb
20260507074503 56 294 1.0 5.0 0.17 0.30 0.17 1 1007.1
20260507074004 56 297 2.0 5.0 0.12 0.25 0.12 1 1006.5
20260507073503 56 303 1.0 5.0 0.05 0.18 0.05 1 1006.0
20260507072504 56 0 0.0 2.0 0.00 0.13 0.00 1 1005.5
20260507072003 56 0 0.0 1.0 0.00 0.13 0.00 1 1005.5
20260507071504 56 0 0.0 0.0 0.00 0.13 0.00 1 1005.5
20260507070503 56 0 0.0 0.0 0.00 0.13 0.00 1 1005.3
20260507070008 56 0 0.0 0.0 0.00 0.13 0.00 1 1005.5
20260507065503 56 0 0.0 0.0 0.00 0.13 0.00 1 1005.6
20260507065004 56 0 0.0 0.0 0.00 0.13 0.00 1 1005.6
20260507064503 56 0 0.0 0.0 0.00 0.13 0.00 1 1005.7
20260507064003 56 0 0.0 0.0 0.00 0.13 0.00 1 1005.7
20260507062503 56 0 0.0 0.0 0.00 0.13 0.00 1 1005.8
20260507061503 56 0 0.0 0.0 0.00 0.13 0.00 1 1005.6
20260507060503 56 0 0.0 0.0 0.00 0.13 0.00 1 1005.9
20260507060004 56 0 0.0 0.0 0.00 0.13 0.00 1 1006.0
20260507055504 56 0 0.0 0.0 0.00 0.13 0.00 1 1006.0
20260507053503 56 0 0.0 0.0 0.00 0.13 0.00 1 1006.4
20260507053004 56 0 0.0 1.0 0.00 0.13 0.00 1 1006.3
20260507052003 56 0 0.0 1.0 0.00 0.13 0.00 1 1006.5
20260507051503 56 0 0.0 3.0 0.00 0.13 0.00 1 1006.5
20260507051003 56 0 0.0 3.0 0.00 0.13 0.00 1 1006.6
20260507050504 56 0 0.0 3.0 0.00 0.13 0.00 1 1006.6
20260507045503 56 0 0.0 5.0 0.00 0.13 0.00 1 1006.5
20260507045003 56 0 0.0 5.0 0.00 0.13 0.00 1 1006.6
20260507044503 56 0 0.0 2.0 0.00 0.13 0.00 1 1006.6
20260507044003 56 0 0.0 2.0 0.00 0.13 0.00 1 1006.6
20260507043503 56 0 0.0 1.0 0.00 0.13 0.00 1 1006.6
20260507043004 56 0 0.0 3.0 0.00 0.13 0.00 1 1006.5
20260507042503 56 0 0.0 3.0 0.00 0.13 0.00 1 1006.5
20260507042004 56 0 0.0 1.0 0.00 0.13 0.00 1 1006.5
20260507041503 56 0 0.0 2.0 0.00 0.13 0.00 1 1006.4
20260507040503 56 0 0.0 3.0 0.00 0.13 0.00 1 1006.5
20260507040004 56 0 0.0 3.0 0.00 0.13 0.00 1 1006.5
20260507035504 56 0 0.0 3.0 0.00 0.13 0.13 1 1006.3
20260507035004 56 0 0.0 2.0 0.00 0.13 0.13 1 1006.4
20260507034503 56 167 1.0 5.0 0.00 0.13 0.13 1 1006.5
20260507034003 56 169 1.0 5.0 0.00 0.13 0.13 1 1006.5
20260507033503 56 0 0.0 2.0 0.00 0.13 0.13 1 1006.7
20260507033004 56 165 1.0 5.0 0.00 0.13 0.13 1 1006.9
20260507032503 56 169 1.0 5.0 0.00 0.13 0.13 1 1007.0
20260507032003 56 173 1.0 5.0 0.00 0.13 0.13 1 1006.8
20260507031503 56 175 1.0 7.0 0.00 0.13 0.13 1 1006.8
20260507030003 56 176 1.0 7.0 0.00 0.13 0.13 1 1006.6
20260507025504 56 187 1.0 6.0 0.00 0.13 0.13 1 1006.7
20260507025003 56 189 1.0 6.0 0.00 0.13 0.13 1 1006.6
20260507024503 56 181 1.0 4.0 0.00 0.13 0.13 1 1006.5
20260507024003 56 183 1.0 6.0 0.00 0.13 0.13 1 1006.6
20260507023503 56 184 1.0 6.0 0.00 0.13 0.13 1 1006.7
20260507022503 56 189 1.0 5.0 0.00 0.13 0.13 1 1006.6
20260507022003 56 0 0.0 4.0 0.00 0.13 0.13 1 1006.6
20260507021004 56 0 0.0 5.0 0.00 0.13 0.13 1 1006.7
20260507020503 56 174 1.0 5.0 0.00 0.13 0.13 1 1006.7
20260507020003 56 171 1.0 5.0 0.00 0.13 0.13 1 1006.8
20260507015004 56 172 1.0 6.0 0.00 0.13 0.13 1 1007.0
20260507014503 56 174 1.0 6.0 0.00 0.13 0.13 1 1007.1
20260507014003 56 155 1.0 8.0 0.00 0.13 0.13 1 1007.2
20260507013503 56 168 1.0 8.0 0.00 0.13 0.13 1 1006.9
20260507013004 56 0 0.0 5.0 0.00 0.13 0.13 1 1007.0
20260507012503 56 177 1.0 5.0 0.00 0.13 0.13 1 1007.2
20260507011503 56 176 1.0 6.0 0.00 0.13 0.13 1 1007.2
20260507011004 56 177 1.0 7.0 0.00 0.13 0.13 1 1007.2
20260507010503 56 169 1.0 7.0 0.00 0.13 0.13 1 1007.3
20260507010004 56 0 0.0 4.0 0.00 0.13 0.13 1 1007.4
20260507005503 56 174 1.0 9.0 0.00 0.13 0.13 1 1007.3
20260507005004 56 183 1.0 9.0 0.00 0.13 0.13 1 1007.3
20260507004503 56 188 2.0 9.0 0.00 0.13 0.13 1 1007.3
20260507004004 56 189 1.0 5.0 0.00 0.13 0.13 1 1007.3
20260507003504 56 179 1.0 5.0 0.00 0.13 0.13 1 1007.2
20260507003004 56 179 1.0 5.0 0.00 0.13 0.13 1 1007.2
20260507002503 56 191 1.0 8.0 0.01 0.13 0.13 1 1007.3
20260507002004 56 185 2.0 8.0 0.02 0.13 0.13 1 1007.2
20260507001503 56 179 2.0 9.0 0.02 0.13 0.13 1 1007.2
20260507001003 56 183 2.0 9.0 0.02 0.13 0.13 1 1007.2
20260507000503 56 187 2.0 7.0 0.02 0.13 0.13 1 1007.2
20260507000004 56 187 2.0 10.0 0.02 0.13 0.13 1 1007.2
20260506235504 56 187 2.0 10.0 0.03 0.13 0.13 1 1007.1
20260506235003 56 191 2.0 9.0 0.03 0.13 0.13 1 1007.2
20260506234503 56 190 2.0 8.0 0.04 0.13 0.13 1 1007.1
20260506234004 56 187 2.0 8.0 0.04 0.13 0.13 1 1007.2
20260506233503 56 181 2.0 10.0 0.05 0.13 0.13 1 1007.2
20260506233003 56 181 2.0 10.0 0.05 0.13 0.13 1 1007.2
20260506232503 56 186 2.0 7.0 0.06 0.12 0.12 1 1007.3
20260506232004 56 189 2.0 7.0 0.05 0.11 0.11 1 1007.3
20260506231504 56 187 2.0 7.0 0.06 0.11 0.11 1 1007.3
20260506231003 56 183 2.0 10.0 0.06 0.11 0.11 1 1007.3
20260506230503 56 188 3.0 10.0 0.06 0.11 0.11 1 1007.2
20260506230004 56 189 2.0 7.0 0.06 0.10 0.10 1 1007.3
20260506225504 56 184 2.0 9.0 0.06 0.10 0.10 1 1007.2
20260506225003 56 183 2.0 9.0 0.05 0.09 0.09 1 1007.1
20260506224503 56 185 2.0 8.0 0.05 0.09 0.09 1 1007.1
20260506224003 56 194 2.0 7.0 0.04 0.08 0.08 1 1007.1
20260506223504 56 191 3.0 11.0 0.04 0.08 0.08 1 1007.1
20260506222504 56 187 2.0 8.0 0.02 0.06 0.06 1 1007.2
20260506222003 56 192 2.0 9.0 0.02 0.06 0.06 1 1007.3
20260506221504 57 191 2.0 9.0 0.01 0.05 0.05 1 1007.2
20260506221004 57 189 3.0 9.0 0.01 0.05 0.05 1 1007.7
20260506220504 57 185 3.0 9.0 0.02 0.05 0.05 1 1007.5
20260506220003 57 176 2.0 13.0 0.01 0.04 0.04 1 1007.6
20260506215503 57 182 3.0 13.0 0.01 0.04 0.04 1 1007.7
20260506215004 57 187 3.0 8.0 0.02 0.04 0.04 1 1007.6
20260506214503 57 186 3.0 12.0 0.02 0.04 0.04 1 1007.5
20260506214003 57 191 3.0 12.0 0.02 0.04 0.04 1 1007.6
20260506213003 57 188 3.0 15.0 0.02 0.04 0.04 1 1007.6
20260506212503 57 189 3.0 13.0 0.02 0.04 0.04 1 1007.8
20260506211003 57 188 3.0 10.0 0.02 0.04 0.04 1 1007.9
20260506210503 57 181 3.0 10.0 0.01 0.03 0.03 1 1007.9
20260506205503 57 193 3.0 14.0 0.01 0.03 0.03 1 1007.9
20260506205003 57 192 3.0 15.0 0.00 0.02 0.02 1 1008.1
20260506203503 57 187 3.0 12.0 0.02 0.02 0.02 1 1008.1
20260506202504 57 183 3.0 11.0 0.02 0.02 0.02 1 1008.1
20260506202003 57 188 3.0 10.0 0.02 0.02 0.02 1 1008.2
20260506201503 57 190 4.0 14.0 0.02 0.02 0.02 1 1008.2
20260506201003 57 187 4.0 14.0 0.02 0.02 0.02 1 1008.2
20260506200503 57 178 3.0 13.0 0.02 0.02 0.02 1 1008.3
20260506200004 57 179 3.0 9.0 0.02 0.02 0.02 1 1008.3
20260506195503 65 175 2.0 7.0 0.02 0.02 0.02 63 1008.4
20260506194503 65 181 2.0 8.0 0.01 0.01 0.01 63 1008.6
20260506193503 65 188 2.0 10.0 0.00 0.00 0.00 63 1008.6
20260506193003 65 177 3.0 10.0 0.00 0.00 0.00 63 1008.6
20260506192503 65 181 3.0 7.0 0.00 0.00 0.00 63 1008.6